Miscellaneous Local Product
Issued by NWS North Platte, NE

Home | Current Version | Previous Version | Graphics & Text | Print | Product List | Glossary On
Versions: 1 2 3 4 5 6 7 8 9 10 11 12 13 14 15 16 17 18 19 20 21 22 23 24 25 26 27 28 29 30 31 32 33 34 35 36 37 38 39 40 41 42 43 44 45 46 47 48 49 50
000
AXUS43 KLBF 231310
MISLBF


WESTERN AND NORTH CENTRAL NEBRASKA HOURLY WEATHER ROUNDUP
NATIONAL WEATHER SERVICE NORTH PLATTE NE
700 AM CST FRI FEB 23 2018

NOTE: "FAIR" INDICATES FEW OR NO CLOUDS BELOW 12,000 FEET WITH NO
SIGNIFICANT WEATHER AND/OR OBSTRUCTIONS TO VISIBILITY.

NOTE: STATIONS NOT REPORTING VARIABLES SUCH AS SKY/WEATHER OR
PRESSURE ARE PROVIDED BY RAWS AND APRS NETWORKS AND ARE NOT UNDER
NATIONAL WEATHER SERVICE QUALITY CONTROL.

...OBSERVATIONS IN AND NEAR THE EASTERN PANHANDLE OF NEBRASKA...

CITY           SKY/WX    TMP DP  RH WIND       PRES   REMARKS
PINE RIDGE     CLEAR    -11 -15  82 SE3       30.16S
GORDON         FAIR      -4  -9  80 CALM      30.14R
CHADRON        CLEAR     -9 -14  78 SW5       30.18R WCI -20
ALLIANCE       MOCLDY    -4  -7  87 CALM      30.10R
SIDNEY         MOCLDY     8   5  87 NW7       30.09S WCI  -3
CRESCENT LAKE    N/A      3   0  85 CALM        N/A
$$

...OBSERVATIONS IN NORTHERN NEBRASKA AND FAR SOUTHERN SOUTH DAKOTA...

CITY           SKY/WX    TMP DP  RH WIND       PRES   REMARKS
WINNER         CLOUDY    11   5  77 W12       30.22R WCI  -3
VALENTINE      CLEAR      4  -1  80 W7        30.20R WCI  -8
AINSWORTH      MOCLDY    13  12  95 NW9       30.17R WCI   1
O`NEILL        CLOUDY    18  17  96 W8        30.21S WCI   8
THEDFORD         N/A      9   6  87 NW9       30.16R WCI  -4
BROKEN BOW     CLOUDY    14  11  87 N10       30.17F WCI   1
ORD            CLOUDY    12  11  95 NW9       30.20S FOG     WCI   0
ALBION         CLOUDY    18  16  91 NW10      30.20F FOG     WCI   6
VALENTINE NWR    N/A      9   5  84 W7          N/A  WCI  -2
HALSEY           N/A     11   8  89 CALM        N/A
BUTTE            N/A     14  12  92 W5          N/A  WCI   6
CHAMBERS         N/A     18  16  91 N3          N/A
EWING            N/A     18  16  91 NW10        N/A  WCI   6
$$

...OBSERVATIONS IN SOUTHWEST NEBRASKA AND FAR NORTHEAST COLORADO...

CITY           SKY/WX    TMP DP  RH WIND       PRES   REMARKS
WRAY           FAIR      14  10  85 CALM      30.12S
HOLYOKE        FAIR      19  14  79 NW5       30.12F WCI  13
IMPERIAL       CLEAR     14  11  87 W5        30.15R WCI   6
OGALLALA       CLEAR      7   4  86 W3        30.16R
NORTH PLATTE   PTCLDY     4  -2  76 NW3       30.18R
MCCOOK         FOG       17  16  95 W6        30.18S VSB 1/2 WCI   9
LEXINGTON      CLEAR      8   4  85 W6        30.20R WCI  -2
STAPLETON        N/A     10   8  90 CALM        N/A
$$

...OBSERVATIONS IN CENTRAL LINCOLN COUNTY AREA...

CITY           SKY/WX    TMP DP  RH WIND       PRES   REMARKS
N.P. AIRPORT   PTCLDY     4  -2  76 NW3       30.18R
N.P. DOWNTOWN    N/A      5   3  90 CALM        N/A
N.P. SOUTHEAST   N/A      8   5  89 CALM        N/A
N.P. HILLCREST   N/A     10   8  92 CALM        N/A
$$

...OBSERVATIONS ACROSS THE ROCKIES AND WESTERN HIGH PLAINS...

CITY           SKY/WX    TMP DP  RH WIND       PRES   REMARKS
RAPID CITY     CLEAR     -2  -6  83 CALM      30.15R
SCOTTSBLUFF    CLEAR      7   3  84 CALM      30.11R
CHEYENNE       MOCLDY    11   7  84 W5        29.98R WCI   3
DENVER         MOCLDY    13  10  88 N3        30.03R FOG
BERTHOUD PASS  FAIR       0 -13  55 SW8G17    29.81S WCI -15
COPPER MTN     CLOUDY     7   0  72 S12       29.82S HAZE    WCI  -9
MONARCH PASS   CLOUDY     3   0  85 SW16      29.94S WCI -16
ASPEN          CLOUDY    16  12  84 SW3       29.91S
LARAMIE        PTCLDY     3   2  95 S9        29.92S WCI -12
CASPER         CLOUDY    -8 -11  86 CALM      30.03R
$$

...OBSERVATIONS ACROSS THE NORTHERN PLAINS...

CITY           SKY/WX    TMP DP  RH WIND       PRES   REMARKS
BISMARCK       CLEAR      4  -1  80 W5        30.23R WCI  -5
FARGO          CLOUDY    18  16  92 NW9       30.14R FOG     WCI   7
PIERRE         CLEAR      2  -1  88 W10       30.21R WCI -14
SIOUX FALLS    FOG       17  15  92 NW15      30.17R VSB 1   WCI   2
$$

...OBSERVATIONS ACROSS THE CENTRAL AND SOUTHERN PLAINS...

CITY           SKY/WX    TMP DP  RH WIND       PRES   REMARKS
OMAHA          CLOUDY    24  21  88 NW12      30.22R FOG     WCI  13
GRAND ISLAND   CLEAR     17  13  84 W7        30.21R WCI   8
KANSAS CITY    FRZ DRZL  32  31  96 W5        30.25R FOG     WCI  27
WICHITA        CLOUDY    33  32  96 E3        30.24R
DODGE CITY     CLOUDY    29  27  92 NE10      30.16S WCI  20
OKLAHOMA CITY  FOG       33  33 100 E7        30.24R VSB 1/4 WCI  27
DALLAS         CLOUDY    42  39  89 NE3       30.20S FOG
AMARILLO       CLOUDY    34  23  64 W6        30.09R WCI  29
$$




USA.gov is the U.S. government's official web portal to all federal, state and local government web resources and services.